Location: Marcé
(47.5801°N, 0.3280°W)
Time: 16:57:41
(UTC+01:00)

SR - Pass Details

Date: 06 December 2021
Orbit: 582 x 872 km, 66.7° (Epoch: 22 January)

Event Time Altitude Azimuth Distance (km) Brightness Sun altitude
Rises 09:15:18 0° 318° (NW) 2,829 ? 4.6°
Reaches altitude 10° 09:17:40 10° 308° (NW) 1,942 ? 4.9°
Maximum altitude 09:21:32 32° 245° (WSW) 1,062 ? 5.4°
Drops below altitude 10° 09:25:35 10° 182° (S) 2,036 ? 5.9°
Sets 09:28:07 0° 173° (S) 2,989 ? 6.2°
